owner,sensor,date,latitude,longitude,vertical_datum,sea_water_practical_salinity,qcFlag 
DISL,ioos:station:DISL:DISL:1,2008-01-01T06:30:00Z,30.2513,-88.0778,6.166,20.91,1111122 
DISL,ioos:station:DISL:DISL:1,2008-01-01T07:00:00Z,30.2513,-88.0778,6.13,20.96,1111122 
DISL,ioos:station:DISL:DISL:1,2008-01-01T07:30:00Z,30.2513,-88.0778,6.102,21.05,1111122 
DISL,ioos:station:DISL:DISL:1,2008-01-01T08:00:00Z,30.2513,-88.0778,6.07,20.96,1111122 
DISL,ioos:station:DISL:DISL:1,2008-01-01T08:30:00Z,30.2513,-88.0778,6.049,20.91,1111122 
DISL,ioos:station:DISL:DISL:1,2008-01-01T09:00:00Z,30.2513,-88.0778,6.064,21.55,1111122 
DISL,ioos:station:DISL:DISL:1,2008-01-01T09:30:00Z,30.2513,-88.0778,6.015,21.72,1111122 
DISL,ioos:station:DISL:DISL:1,2008-01-01T10:00:00Z,30.2513,-88.0778,5.88,21.79,1111122 
DISL,ioos:station:DISL:DISL:1,2008-01-01T10:30:00Z,30.2513,-88.0778,6.211,22.08,1111122 
DISL,ioos:station:DISL:DISL:1,2008-01-01T11:00:00Z,30.2513,-88.0778,5.904,22.27,1111122 
DISL,ioos:station:DISL:DISL:1,2008-01-01T11:30:00Z,30.2513,-88.0778,5.443,21.56,1111122 
DISL,ioos:station:DISL:DISL:1,2008-01-01T12:00:00Z,30.2513,-88.0778,5.501,20.63,1111122 
DISL,ioos:station:DISL:DISL:1,2008-01-01T12:30:00Z,30.2513,-88.0778,5.65,20.41,1111122 
DISL,ioos:station:DISL:DISL:1,2008-01-01T13:00:00Z,30.2513,-88.0778,5.717,20.23,1111122 
DISL,ioos:station:DISL:DISL:1,2008-01-01T13:30:00Z,30.2513,-88.0778,5.965,20.15,1111122 
DISL,ioos:station:DISL:DISL:1,2008-01-01T14:00:00Z,30.2513,-88.0778,5.594,20.08,1111122 
DISL,ioos:station:DISL:DISL:1,2008-01-01T14:30:00Z,30.2513,-88.0778,5.041,19.93,1111122 
DISL,ioos:station:DISL:DISL:1,2008-01-01T15:00:00Z,30.2513,-88.0778,5.57,19.93,1111122 
DISL,ioos:station:DISL:DISL:1,2008-01-01T15:30:00Z,30.2513,-88.0778,5.374,20.62,1111122 
DISL,ioos:station:DISL:DISL:1,2008-01-01T16:00:00Z,30.2513,-88.0778,5.384,20.29,1111122 
DISL,ioos:station:DISL:DISL:1,2008-01-01T16:30:00Z,30.2513,-88.0778,5.269,20.22,1111122 
DISL,ioos:station:DISL:DISL:1,2008-01-01T17:00:00Z,30.2513,-88.0778,5.208,20.38,1111122 
DISL,ioos:station:DISL:DISL:1,2008-01-01T17:30:00Z,30.2513,-88.0778,5.446,20.53,1111122 
DISL,ioos:station:DISL:DISL:1,2008-01-01T18:00:00Z,30.2513,-88.0778,5.436,20.89,1111122 
DISL,ioos:station:DISL:DISL:1,2008-01-01T18:30:00Z,30.2513,-88.0778,5.476,21.69,1111122 
DISL,ioos:station:DISL:DISL:1,2008-01-01T19:00:00Z,30.2513,-88.0778,5.506,22.21,1111122 
DISL,ioos:station:DISL:DISL:1,2008-01-01T19:30:00Z,30.2513,-88.0778,5.509,22.56,1111122 
DISL,ioos:station:DISL:DISL:1,2008-01-01T20:00:00Z,30.2513,-88.0778,5.562,22.92,1111122 
DISL,ioos:station:DISL:DISL:1,2008-01-01T20:30:00Z,30.2513,-88.0778,5.762,23.07,1111122 
DISL,ioos:station:DISL:DISL:1,2008-01-01T21:00:00Z,30.2513,-88.0778,5.674,23.15,1111122 
DISL,ioos:station:DISL:DISL:1,2008-01-01T21:30:00Z,30.2513,-88.0778,5.585,23.32,1111122 
DISL,ioos:station:DISL:DISL:1,2008-01-01T22:00:00Z,30.2513,-88.0778,5.617,23.44,1111122 
DISL,ioos:station:DISL:DISL:1,2008-01-01T22:30:00Z,30.2513,-88.0778,5.645,23.53,1111122 
DISL,ioos:station:DISL:DISL:1,2008-01-01T23:00:00Z,30.2513,-88.0778,5.494,23.69,1111122 
DISL,ioos:station:DISL:DISL:1,2008-01-01T23:30:00Z,30.2513,-88.0778,5.569,23.76,1111122 
DISL,ioos:station:DISL:DISL:1,2008-01-02T00:00:00Z,30.2513,-88.0778,5.574,23.74,1111122 
DISL,ioos:station:DISL:DISL:1,2008-01-02T00:30:00Z,30.2513,-88.0778,5.527,23.71,1111122 
DISL,ioos:station:DISL:DISL:1,2008-01-02T01:00:00Z,30.2513,-88.0778,5.502,23.66,1111122 
DISL,ioos:station:DISL:DISL:1,2008-01-02T01:30:00Z,30.2513,-88.0778,5.385,23.43,1111122 
DISL,ioos:station:DISL:DISL:1,2008-01-02T02:00:00Z,30.2513,-88.0778,5.322,23.03,1111122 
DISL,ioos:station:DISL:DISL:1,2008-01-02T02:30:00Z,30.2513,-88.0778,5.244,22.78,1111122 
DISL,ioos:station:DISL:DISL:1,2008-01-02T03:00:00Z,30.2513,-88.0778,5.286,22.56,1111122 
DISL,ioos:station:DISL:DISL:1,2008-01-02T03:30:00Z,30.2513,-88.0778,5.322,22.36,1111122 
DISL,ioos:station:DISL:DISL:1,2008-01-02T04:00:00Z,30.2513,-88.0778,5.237,22.23,1111122 
DISL,ioos:station:DISL:DISL:1,2008-01-02T04:30:00Z,30.2513,-88.0778,5.105,22.19,1111122 
DISL,ioos:station:DISL:DISL:1,2008-01-02T05:00:00Z,30.2513,-88.0778,5.043,22.16,1111122 
DISL,ioos:station:DISL:DISL:1,2008-01-02T05:30:00Z,30.2513,-88.0778,4.924,21.81,1111122 
DISL,ioos:station:DISL:DISL:1,2008-01-02T06:00:00Z,30.2513,-88.0778,4.89,21.72,1111122 
DISL,ioos:station:DISL:DISL:1,2008-01-02T06:30:00Z,30.2513,-88.0778,4.664,21.73,1111122 
DISL,ioos:station:DISL:DISL:1,2008-01-02T07:00:00Z,30.2513,-88.0778,4.747,21.77,1111122 
DISL,ioos:station:DISL:DISL:1,2008-01-02T07:30:00Z,30.2513,-88.0778,4.646,21.74,1111122 
DISL,ioos:station:DISL:DISL:1,2008-01-02T08:00:00Z,30.2513,-88.0778,4.462,21.66,1111122 
DISL,ioos:station:DISL:DISL:1,2008-01-02T08:30:00Z,30.2513,-88.0778,4.413,21.65,1111122 
DISL,ioos:station:DISL:DISL:1,2008-01-02T09:00:00Z,30.2513,-88.0778,4.375,21.49,1111122 
DISL,ioos:station:DISL:DISL:1,2008-01-02T09:30:00Z,30.2513,-88.0778,4.068,21.49,1111122 
DISL,ioos:station:DISL:DISL:1,2008-01-02T10:00:00Z,30.2513,-88.0778,4.29,21.52,1111122 
DISL,ioos:station:DISL:DISL:1,2008-01-02T10:30:00Z,30.2513,-88.0778,4.497,21.48,1111122 
DISL,ioos:station:DISL:DISL:1,2008-01-02T11:00:00Z,30.2513,-88.0778,4.001,21.34,1111122 
DISL,ioos:station:DISL:DISL:1,2008-01-02T11:30:00Z,30.2513,-88.0778,4.247,21.36,1111122 
DISL,ioos:station:DISL:DISL:1,2008-01-02T12:00:00Z,30.2513,-88.0778,4.074,21.33,1111122 
DISL,ioos:station:DISL:DISL:1,2008-01-02T12:30:00Z,30.2513,-88.0778,3.992,21.17,1111122 
DISL,ioos:station:DISL:DISL:1,2008-01-02T13:00:00Z,30.2513,-88.0778,4.136,21.21,1111122 
DISL,ioos:station:DISL:DISL:1,2008-01-02T13:30:00Z,30.2513,-88.0778,4.006,21.27,1111122 
DISL,ioos:station:DISL:DISL:1,2008-01-02T14:00:00Z,30.2513,-88.0778,3.933,21.26,1111122 
DISL,ioos:station:DISL:DISL:1,2008-01-02T14:30:00Z,30.2513,-88.0778,4.0,21.3,1111122 
DISL,ioos:station:DISL:DISL:1,2008-01-02T15:00:00Z,30.2513,-88.0778,3.963,21.36,1111122 
DISL,ioos:station:DISL:DISL:1,2008-01-02T15:30:00Z,30.2513,-88.0778,4.078,21.37,1111122 
DISL,ioos:station:DISL:DISL:1,2008-01-02T16:00:00Z,30.2513,-88.0778,4.119,21.28,1111122 
DISL,ioos:station:DISL:DISL:1,2008-01-02T16:30:00Z,30.2513,-88.0778,4.103,21.27,1111122 
DISL,ioos:station:DISL:DISL:1,2008-01-02T17:00:00Z,30.2513,-88.0778,4.279,21.18,1111122 
DISL,ioos:station:DISL:DISL:1,2008-01-02T17:30:00Z,30.2513,-88.0778,4.31,21.79,1111122 
DISL,ioos:station:DISL:DISL:1,2008-01-02T18:00:00Z,30.2513,-88.0778,4.262,23.96,1111122 
DISL,ioos:station:DISL:DISL:1,2008-01-02T18:30:00Z,30.2513,-88.0778,4.357,22.95,1111122 
DISL,ioos:station:DISL:DISL:1,2008-01-02T19:00:00Z,30.2513,-88.0778,4.666,23.09,1111122 
DISL,ioos:station:DISL:DISL:1,2008-01-02T19:30:00Z,30.2513,-88.0778,4.533,21.62,1111122 
DISL,ioos:station:DISL:DISL:1,2008-01-02T20:00:00Z,30.2513,-88.0778,4.711,21.31,1111122 
DISL,ioos:station:DISL:DISL:1,2008-01-02T20:30:00Z,30.2513,-88.0778,4.777,21.25,1111122 
DISL,ioos:station:DISL:DISL:1,2008-01-02T21:00:00Z,30.2513,-88.0778,5.069,21.4,1111122 
DISL,ioos:station:DISL:DISL:1,2008-01-02T21:30:00Z,30.2513,-88.0778,4.957,22.24,1111122 
DISL,ioos:station:DISL:DISL:1,2008-01-02T22:00:00Z,30.2513,-88.0778,5.039,22.57,1111122 
DISL,ioos:station:DISL:DISL:1,2008-01-02T22:30:00Z,30.2513,-88.0778,5.106,22.41,1111122 
DISL,ioos:station:DISL:DISL:1,2008-01-02T23:00:00Z,30.2513,-88.0778,5.208,23.67,1111122 
DISL,ioos:station:DISL:DISL:1,2008-01-02T23:30:00Z,30.2513,-88.0778,5.348,23.69,1111122 
DISL,ioos:station:DISL:DISL:1,2008-01-03T00:00:00Z,30.2513,-88.0778,5.275,24.3,1111122 
DISL,ioos:station:DISL:DISL:1,2008-01-03T00:30:00Z,30.2513,-88.0778,5.334,23.7,1111122 
DISL,ioos:station:DISL:DISL:1,2008-01-03T01:00:00Z,30.2513,-88.0778,4.974,22.84,1111122 
DISL,ioos:station:DISL:DISL:1,2008-01-03T01:30:00Z,30.2513,-88.0778,5.282,22.7,1111122 
DISL,ioos:station:DISL:DISL:1,2008-01-03T02:00:00Z,30.2513,-88.0778,5.246,22.65,1111122 
DISL,ioos:station:DISL:DISL:1,2008-01-03T02:30:00Z,30.2513,-88.0778,5.324,22.63,1111122 
DISL,ioos:station:DISL:DISL:1,2008-01-03T03:00:00Z,30.2513,-88.0778,5.289,22.63,1111122 
DISL,ioos:station:DISL:DISL:1,2008-01-03T03:30:00Z,30.2513,-88.0778,5.228,22.64,1111122 
DISL,ioos:station:DISL:DISL:1,2008-01-03T04:00:00Z,30.2513,-88.0778,5.225,22.36,1111122 
DISL,ioos:station:DISL:DISL:1,2008-01-03T04:30:00Z,30.2513,-88.0778,4.717,21.98,1111122 
DISL,ioos:station:DISL:DISL:1,2008-01-03T05:00:00Z,30.2513,-88.0778,4.987,22.05,1111122 
DISL,ioos:station:DISL:DISL:1,2008-01-03T05:30:00Z,30.2513,-88.0778,4.894,22.09,1111122 
DISL,ioos:station:DISL:DISL:1,2008-01-03T06:00:00Z,30.2513,-88.0778,4.542,22.29,1111122 
DISL,ioos:station:DISL:DISL:1,2008-01-03T06:30:00Z,30.2513,-88.0778,4.885,22.33,1111122 
DISL,ioos:station:DISL:DISL:1,2008-01-03T07:00:00Z,30.2513,-88.0778,4.745,22.41,1111122 
DISL,ioos:station:DISL:DISL:1,2008-01-03T07:30:00Z,30.2513,-88.0778,4.753,22.25,1111122 
DISL,ioos:station:DISL:DISL:1,2008-01-03T08:00:00Z,30.2513,-88.0778,4.584,22.21,1111122 
DISL,ioos:station:DISL:DISL:1,2008-01-03T08:30:00Z,30.2513,-88.0778,4.455,22.46,1111122 
DISL,ioos:station:DISL:DISL:1,2008-01-03T09:00:00Z,30.2513,-88.0778,4.133,22.52,1111122 
DISL,ioos:station:DISL:DISL:1,2008-01-03T09:30:00Z,30.2513,-88.0778,3.984,22.52,1111122 
DISL,ioos:station:DISL:DISL:1,2008-01-03T10:00:00Z,30.2513,-88.0778,4.328,22.39,1111122 
DISL,ioos:station:DISL:DISL:1,2008-01-03T10:30:00Z,30.2513,-88.0778,4.309,22.43,1111122 
DISL,ioos:station:DISL:DISL:1,2008-01-03T11:00:00Z,30.2513,-88.0778,3.888,22.3,1111122 
DISL,ioos:station:DISL:DISL:1,2008-01-03T11:30:00Z,30.2513,-88.0778,4.035,22.37,1111122 
DISL,ioos:station:DISL:DISL:1,2008-01-03T12:00:00Z,30.2513,-88.0778,3.943,22.35,1111122 
DISL,ioos:station:DISL:DISL:1,2008-01-03T12:30:00Z,30.2513,-88.0778,4.012,22.35,1111122 
DISL,ioos:station:DISL:DISL:1,2008-01-03T13:00:00Z,30.2513,-88.0778,4.031,22.36,1111122 
DISL,ioos:station:DISL:DISL:1,2008-01-03T13:30:00Z,30.2513,-88.0778,4.091,22.53,1111122 
DISL,ioos:station:DISL:DISL:1,2008-01-03T14:00:00Z,30.2513,-88.0778,3.997,22.79,1111122 
DISL,ioos:station:DISL:DISL:1,2008-01-03T14:30:00Z,30.2513,-88.0778,4.18,22.74,1111122 
DISL,ioos:station:DISL:DISL:1,2008-01-03T15:00:00Z,30.2513,-88.0778,4.044,23.18,1111122 
DISL,ioos:station:DISL:DISL:1,2008-01-03T15:30:00Z,30.2513,-88.0778,4.057,23.31,1111122 
DISL,ioos:station:DISL:DISL:1,2008-01-03T16:00:00Z,30.2513,-88.0778,4.05,23.79,1111122 
DISL,ioos:station:DISL:DISL:1,2008-01-03T16:30:00Z,30.2513,-88.0778,4.088,26.07,1111122 
DISL,ioos:station:DISL:DISL:1,2008-01-03T17:00:00Z,30.2513,-88.0778,4.139,26.73,1111122 
DISL,ioos:station:DISL:DISL:1,2008-01-03T17:30:00Z,30.2513,-88.0778,4.21,26.3,1111122 
DISL,ioos:station:DISL:DISL:1,2008-01-03T18:00:00Z,30.2513,-88.0778,4.272,24.85,1111122 
DISL,ioos:station:DISL:DISL:1,2008-01-03T18:30:00Z,30.2513,-88.0778,4.408,24.14,1111122 
DISL,ioos:station:DISL:DISL:1,2008-01-03T19:00:00Z,30.2513,-88.0778,4.504,23.59,1111122 
DISL,ioos:station:DISL:DISL:1,2008-01-03T19:30:00Z,30.2513,-88.0778,4.608,23.36,1111122 
DISL,ioos:station:DISL:DISL:1,2008-01-03T20:00:00Z,30.2513,-88.0778,4.72,23.03,1111122 
DISL,ioos:station:DISL:DISL:1,2008-01-03T20:30:00Z,30.2513,-88.0778,4.819,24.41,1111122 
DISL,ioos:station:DISL:DISL:1,2008-01-03T21:00:00Z,30.2513,-88.0778,4.911,24.91,1111122 
DISL,ioos:station:DISL:DISL:1,2008-01-03T21:30:00Z,30.2513,-88.0778,5.003,25.15,1111122 
DISL,ioos:station:DISL:DISL:1,2008-01-03T22:00:00Z,30.2513,-88.0778,5.088,25.1,1111122 
DISL,ioos:station:DISL:DISL:1,2008-01-03T22:30:00Z,30.2513,-88.0778,5.202,24.64,1111122 
DISL,ioos:station:DISL:DISL:1,2008-01-03T23:00:00Z,30.2513,-88.0778,5.268,24.95,1111122 
DISL,ioos:station:DISL:DISL:1,2008-01-03T23:30:00Z,30.2513,-88.0778,5.337,24.63,1111122 
DISL,ioos:station:DISL:DISL:1,2008-01-04T00:00:00Z,30.2513,-88.0778,5.43,24.81,1111122 
DISL,ioos:station:DISL:DISL:1,2008-01-04T00:30:00Z,30.2513,-88.0778,5.456,25.28,1111122 
DISL,ioos:station:DISL:DISL:1,2008-01-04T01:00:00Z,30.2513,-88.0778,5.545,24.71,1111122 
DISL,ioos:station:DISL:DISL:1,2008-01-04T01:30:00Z,30.2513,-88.0778,5.587,26.21,1111122 
DISL,ioos:station:DISL:DISL:1,2008-01-04T02:00:00Z,30.2513,-88.0778,5.623,27.29,1111122 
DISL,ioos:station:DISL:DISL:1,2008-01-04T02:30:00Z,30.2513,-88.0778,5.62,27.57,1111122 
DISL,ioos:station:DISL:DISL:1,2008-01-04T03:00:00Z,30.2513,-88.0778,5.615,23.65,1111122 
DISL,ioos:station:DISL:DISL:1,2008-01-04T03:30:00Z,30.2513,-88.0778,5.555,23.28,1111122 
DISL,ioos:station:DISL:DISL:1,2008-01-04T04:00:00Z,30.2513,-88.0778,5.447,23.38,1111122 
DISL,ioos:station:DISL:DISL:1,2008-01-04T04:30:00Z,30.2513,-88.0778,5.565,23.13,1111122 
DISL,ioos:station:DISL:DISL:1,2008-01-04T05:00:00Z,30.2513,-88.0778,5.366,22.95,1111122 
DISL,ioos:station:DISL:DISL:1,2008-01-04T05:30:00Z,30.2513,-88.0778,5.316,22.88,1111122 
DISL,ioos:station:DISL:DISL:1,2008-01-04T06:00:00Z,30.2513,-88.0778,5.247,22.71,1111122 
DISL,ioos:station:DISL:DISL:1,2008-01-04T06:30:00Z,30.2513,-88.0778,5.172,22.61,1111122 
DISL,ioos:station:DISL:DISL:1,2008-01-04T07:00:00Z,30.2513,-88.0778,5.122,22.59,1111122 
DISL,ioos:station:DISL:DISL:1,2008-01-04T07:30:00Z,30.2513,-88.0778,5.086,22.6,1111122 
DISL,ioos:station:DISL:DISL:1,2008-01-04T08:00:00Z,30.2513,-88.0778,4.956,22.59,1111122 
DISL,ioos:station:DISL:DISL:1,2008-01-04T08:30:00Z,30.2513,-88.0778,4.907,22.58,1111122 
DISL,ioos:station:DISL:DISL:1,2008-01-04T09:00:00Z,30.2513,-88.0778,5.006,22.58,1111122 
DISL,ioos:station:DISL:DISL:1,2008-01-04T09:30:00Z,30.2513,-88.0778,4.778,22.63,1111122 
DISL,ioos:station:DISL:DISL:1,2008-01-04T10:00:00Z,30.2513,-88.0778,4.693,22.91,1111122 
DISL,ioos:station:DISL:DISL:1,2008-01-04T10:30:00Z,30.2513,-88.0778,4.654,23.28,1111122 
DISL,ioos:station:DISL:DISL:1,2008-01-04T11:00:00Z,30.2513,-88.0778,4.6,23.97,1111122 
DISL,ioos:station:DISL:DISL:1,2008-01-04T11:30:00Z,30.2513,-88.0778,4.577,24.55,1111122 
DISL,ioos:station:DISL:DISL:1,2008-01-04T12:00:00Z,30.2513,-88.0778,4.742,24.98,1111122 
DISL,ioos:station:DISL:DISL:1,2008-01-04T12:30:00Z,30.2513,-88.0778,4.419,25.0,1111122 
DISL,ioos:station:DISL:DISL:1,2008-01-04T13:00:00Z,30.2513,-88.0778,4.57,24.77,1111122 
DISL,ioos:station:DISL:DISL:1,2008-01-04T13:30:00Z,30.2513,-88.0778,4.648,24.63,1111122 
DISL,ioos:station:DISL:DISL:1,2008-01-04T14:00:00Z,30.2513,-88.0778,4.645,24.61,1111122 
DISL,ioos:station:DISL:DISL:1,2008-01-04T14:30:00Z,30.2513,-88.0778,4.649,24.64,1111122 
DISL,ioos:station:DISL:DISL:1,2008-01-04T15:00:00Z,30.2513,-88.0778,4.685,24.66,1111122 
DISL,ioos:station:DISL:DISL:1,2008-01-04T15:30:00Z,30.2513,-88.0778,4.656,24.95,1111122 
DISL,ioos:station:DISL:DISL:1,2008-01-04T16:00:00Z,30.2513,-88.0778,4.659,25.86,1111122 
DISL,ioos:station:DISL:DISL:1,2008-01-04T16:30:00Z,30.2513,-88.0778,4.726,25.98,1111122 
DISL,ioos:station:DISL:DISL:1,2008-01-04T17:00:00Z,30.2513,-88.0778,4.801,25.8,1111122 
DISL,ioos:station:DISL:DISL:1,2008-01-04T17:30:00Z,30.2513,-88.0778,4.921,25.67,1111122 
DISL,ioos:station:DISL:DISL:1,2008-01-04T18:00:00Z,30.2513,-88.0778,5.024,25.51,1111122 
DISL,ioos:station:DISL:DISL:1,2008-01-04T18:30:00Z,30.2513,-88.0778,5.13,25.48,1111122 
DISL,ioos:station:DISL:DISL:1,2008-01-04T19:00:00Z,30.2513,-88.0778,5.193,25.43,1111122 
DISL,ioos:station:DISL:DISL:1,2008-01-04T19:30:00Z,30.2513,-88.0778,5.313,25.5,1111122 
DISL,ioos:station:DISL:DISL:1,2008-01-04T20:00:00Z,30.2513,-88.0778,5.43,26.15,1111122 
DISL,ioos:station:DISL:DISL:1,2008-01-04T20:30:00Z,30.2513,-88.0778,5.539,26.7,1111122 
DISL,ioos:station:DISL:DISL:1,2008-01-04T21:00:00Z,30.2513,-88.0778,5.646,26.99,1111122 
DISL,ioos:station:DISL:DISL:1,2008-01-04T21:30:00Z,30.2513,-88.0778,5.726,27.43,1111122 
DISL,ioos:station:DISL:DISL:1,2008-01-04T22:00:00Z,30.2513,-88.0778,5.949,26.55,1111122 
DISL,ioos:station:DISL:DISL:1,2008-01-04T22:30:00Z,30.2513,-88.0778,5.913,26.17,1111122 
DISL,ioos:station:DISL:DISL:1,2008-01-04T23:00:00Z,30.2513,-88.0778,6.062,27.75,1111122 
DISL,ioos:station:DISL:DISL:1,2008-01-04T23:30:00Z,30.2513,-88.0778,6.17,26.72,1111122 
DISL,ioos:station:DISL:DISL:1,2008-01-05T00:00:00Z,30.2513,-88.0778,6.244,26.99,1111122 
DISL,ioos:station:DISL:DISL:1,2008-01-05T00:30:00Z,30.2513,-88.0778,6.252,28.35,1111122 
DISL,ioos:station:DISL:DISL:1,2008-01-05T01:00:00Z,30.2513,-88.0778,6.313,29.81,1111122 
DISL,ioos:station:DISL:DISL:1,2008-01-05T01:30:00Z,30.2513,-88.0778,6.378,29.8,1111122 
DISL,ioos:station:DISL:DISL:1,2008-01-05T02:00:00Z,30.2513,-88.0778,6.38,29.97,1111122 
DISL,ioos:station:DISL:DISL:1,2008-01-05T02:30:00Z,30.2513,-88.0778,6.429,30.24,1111122 
DISL,ioos:station:DISL:DISL:1,2008-01-05T03:00:00Z,30.2513,-88.0778,6.154,30.31,1111122 
DISL,ioos:station:DISL:DISL:1,2008-01-05T03:30:00Z,30.2513,-88.0778,6.383,30.27,1111122 
DISL,ioos:station:DISL:DISL:1,2008-01-05T04:00:00Z,30.2513,-88.0778,6.299,29.84,1111122 
DISL,ioos:station:DISL:DISL:1,2008-01-05T04:30:00Z,30.2513,-88.0778,6.156,28.75,1111122 
DISL,ioos:station:DISL:DISL:1,2008-01-05T05:00:00Z,30.2513,-88.0778,6.176,27.55,1111122 
DISL,ioos:station:DISL:DISL:1,2008-01-05T05:30:00Z,30.2513,-88.0778,6.074,27.61,1111122 
DISL,ioos:station:DISL:DISL:1,2008-01-05T06:00:00Z,30.2513,-88.0778,5.944,27.71,1111122 
DISL,ioos:station:DISL:DISL:1,2008-01-05T06:30:00Z,30.2513,-88.0778,5.904,27.48,1111122 
DISL,ioos:station:DISL:DISL:1,2008-01-05T07:00:00Z,30.2513,-88.0778,5.834,27.12,1111122 
DISL,ioos:station:DISL:DISL:1,2008-01-05T07:30:00Z,30.2513,-88.0778,5.727,26.72,1111122 
DISL,ioos:station:DISL:DISL:1,2008-01-05T08:00:00Z,30.2513,-88.0778,5.681,26.48,1111122 
DISL,ioos:station:DISL:DISL:1,2008-01-05T08:30:00Z,30.2513,-88.0778,5.595,26.52,1111122 
DISL,ioos:station:DISL:DISL:1,2008-01-05T09:00:00Z,30.2513,-88.0778,5.517,26.5,1111122 
DISL,ioos:station:DISL:DISL:1,2008-01-05T09:30:00Z,30.2513,-88.0778,5.445,26.43,1111122 
DISL,ioos:station:DISL:DISL:1,2008-01-05T10:00:00Z,30.2513,-88.0778,5.345,26.21,1111122 
DISL,ioos:station:DISL:DISL:1,2008-01-05T10:30:00Z,30.2513,-88.0778,5.268,26.07,1111122 
DISL,ioos:station:DISL:DISL:1,2008-01-05T11:00:00Z,30.2513,-88.0778,5.228,25.89,1111122 
DISL,ioos:station:DISL:DISL:1,2008-01-05T11:30:00Z,30.2513,-88.0778,5.21,26.01,1111122 
DISL,ioos:station:DISL:DISL:1,2008-01-05T12:00:00Z,30.2513,-88.0778,5.166,26.27,1111122 
DISL,ioos:station:DISL:DISL:1,2008-01-05T12:30:00Z,30.2513,-88.0778,5.146,26.69,1111122 
DISL,ioos:station:DISL:DISL:1,2008-01-05T13:00:00Z,30.2513,-88.0778,5.07,26.91,1111122 
DISL,ioos:station:DISL:DISL:1,2008-01-05T13:30:00Z,30.2513,-88.0778,5.055,27.32,1111122 
DISL,ioos:station:DISL:DISL:1,2008-01-05T14:00:00Z,30.2513,-88.0778,5.092,27.62,1111122 
DISL,ioos:station:DISL:DISL:1,2008-01-05T14:30:00Z,30.2513,-88.0778,5.084,27.78,1111122 
DISL,ioos:station:DISL:DISL:1,2008-01-05T15:00:00Z,30.2513,-88.0778,5.082,27.9,1111122 
DISL,ioos:station:DISL:DISL:1,2008-01-05T15:30:00Z,30.2513,-88.0778,5.132,28.05,1111122 
DISL,ioos:station:DISL:DISL:1,2008-01-05T16:00:00Z,30.2513,-88.0778,5.194,28.04,1111122 
DISL,ioos:station:DISL:DISL:1,2008-01-05T16:30:00Z,30.2513,-88.0778,5.198,28.42,1111122 
DISL,ioos:station:DISL:DISL:1,2008-01-05T17:00:00Z,30.2513,-88.0778,5.263,28.41,1111122 
DISL,ioos:station:DISL:DISL:1,2008-01-05T17:30:00Z,30.2513,-88.0778,5.297,28.4,1111122 
DISL,ioos:station:DISL:DISL:1,2008-01-05T18:00:00Z,30.2513,-88.0778,5.396,28.2,1111122 
DISL,ioos:station:DISL:DISL:1,2008-01-05T18:30:00Z,30.2513,-88.0778,5.503,28.09,1111122 
DISL,ioos:station:DISL:DISL:1,2008-01-05T19:00:00Z,30.2513,-88.0778,5.611,28.02,1111122 
DISL,ioos:station:DISL:DISL:1,2008-01-05T19:30:00Z,30.2513,-88.0778,5.694,27.92,1111122 
DISL,ioos:station:DISL:DISL:1,2008-01-05T20:00:00Z,30.2513,-88.0778,5.785,26.98,1111122 
DISL,ioos:station:DISL:DISL:1,2008-01-05T20:30:00Z,30.2513,-88.0778,5.951,26.33,1111122 
DISL,ioos:station:DISL:DISL:1,2008-01-05T21:00:00Z,30.2513,-88.0778,6.001,26.12,1111122 
DISL,ioos:station:DISL:DISL:1,2008-01-05T21:30:00Z,30.2513,-88.0778,6.13,26.43,1111122 
DISL,ioos:station:DISL:DISL:1,2008-01-05T22:00:00Z,30.2513,-88.0778,6.227,26.16,1111122 
DISL,ioos:station:DISL:DISL:1,2008-01-05T22:30:00Z,30.2513,-88.0778,6.341,26.42,1111122 
DISL,ioos:station:DISL:DISL:1,2008-01-05T23:00:00Z,30.2513,-88.0778,6.471,26.79,1111122 
DISL,ioos:station:DISL:DISL:1,2008-01-05T23:30:00Z,30.2513,-88.0778,6.598,27.29,1111122 
DISL,ioos:station:DISL:DISL:1,2008-01-06T00:00:00Z,30.2513,-88.0778,6.733,27.08,1111122 
DISL,ioos:station:DISL:DISL:1,2008-01-06T00:30:00Z,30.2513,-88.0778,6.708,27.74,1111122 
DISL,ioos:station:DISL:DISL:1,2008-01-06T01:00:00Z,30.2513,-88.0778,6.86,27.95,1111122 
DISL,ioos:station:DISL:DISL:1,2008-01-06T01:30:00Z,30.2513,-88.0778,6.833,27.64,1111122 
DISL,ioos:station:DISL:DISL:1,2008-01-06T02:00:00Z,30.2513,-88.0778,6.944,27.66,1111122 
DISL,ioos:station:DISL:DISL:1,2008-01-06T02:30:00Z,30.2513,-88.0778,6.962,27.35,1111122 
DISL,ioos:station:DISL:DISL:1,2008-01-06T03:00:00Z,30.2513,-88.0778,6.98,26.96,1111122 
DISL,ioos:station:DISL:DISL:1,2008-01-06T03:30:00Z,30.2513,-88.0778,6.969,28.26,1111122 
DISL,ioos:station:DISL:DISL:1,2008-01-06T04:00:00Z,30.2513,-88.0778,6.885,27.58,1111122 
DISL,ioos:station:DISL:DISL:1,2008-01-06T04:30:00Z,30.2513,-88.0778,6.821,27.81,1111122 
DISL,ioos:station:DISL:DISL:1,2008-01-06T05:00:00Z,30.2513,-88.0778,6.796,28.15,1111122 
DISL,ioos:station:DISL:DISL:1,2008-01-06T05:30:00Z,30.2513,-88.0778,6.698,27.61,1111122 
DISL,ioos:station:DISL:DISL:1,2008-01-06T06:00:00Z,30.2513,-88.0778,6.587,27.48,1111122 
DISL,ioos:station:DISL:DISL:1,2008-01-06T06:30:00Z,30.2513,-88.0778,6.474,27.02,1111122 
DISL,ioos:station:DISL:DISL:1,2008-01-06T07:00:00Z,30.2513,-88.0778,6.406,27.22,1111122 
DISL,ioos:station:DISL:DISL:1,2008-01-06T07:30:00Z,30.2513,-88.0778,6.307,27.08,1111122 
DISL,ioos:station:DISL:DISL:1,2008-01-06T08:00:00Z,30.2513,-88.0778,6.163,26.99,1111122 
DISL,ioos:station:DISL:DISL:1,2008-01-06T08:30:00Z,30.2513,-88.0778,6.126,26.87,1111122 
DISL,ioos:station:DISL:DISL:1,2008-01-06T09:00:00Z,30.2513,-88.0778,6.005,26.84,1111122 
DISL,ioos:station:DISL:DISL:1,2008-01-06T09:30:00Z,30.2513,-88.0778,5.896,26.9,1111122 
DISL,ioos:station:DISL:DISL:1,2008-01-06T10:00:00Z,30.2513,-88.0778,5.81,26.99,1111122 
DISL,ioos:station:DISL:DISL:1,2008-01-06T10:30:00Z,30.2513,-88.0778,5.707,27.09,1111122 
DISL,ioos:station:DISL:DISL:1,2008-01-06T11:00:00Z,30.2513,-88.0778,5.64,27.05,1111122 
DISL,ioos:station:DISL:DISL:1,2008-01-06T11:30:00Z,30.2513,-88.0778,5.494,26.36,1111122 
DISL,ioos:station:DISL:DISL:1,2008-01-06T12:00:00Z,30.2513,-88.0778,5.475,25.95,1111122 
DISL,ioos:station:DISL:DISL:1,2008-01-06T12:30:00Z,30.2513,-88.0778,5.405,25.58,1111122 
DISL,ioos:station:DISL:DISL:1,2008-01-06T13:00:00Z,30.2513,-88.0778,5.377,25.12,1111122 
DISL,ioos:station:DISL:DISL:1,2008-01-06T13:30:00Z,30.2513,-88.0778,5.268,24.74,1111122 
DISL,ioos:station:DISL:DISL:1,2008-01-06T14:00:00Z,30.2513,-88.0778,5.259,24.48,1111122 
DISL,ioos:station:DISL:DISL:1,2008-01-06T14:30:00Z,30.2513,-88.0778,5.255,24.41,1111122 
DISL,ioos:station:DISL:DISL:1,2008-01-06T15:00:00Z,30.2513,-88.0778,5.239,24.6,1111122 
DISL,ioos:station:DISL:DISL:1,2008-01-06T15:30:00Z,30.2513,-88.0778,5.23,24.57,1111122 
DISL,ioos:station:DISL:DISL:1,2008-01-06T16:00:00Z,30.2513,-88.0778,5.274,24.9,1111122 
DISL,ioos:station:DISL:DISL:1,2008-01-06T16:30:00Z,30.2513,-88.0778,5.302,25.28,1111122 
DISL,ioos:station:DISL:DISL:1,2008-01-06T17:00:00Z,30.2513,-88.0778,5.309,25.31,1111122 
DISL,ioos:station:DISL:DISL:1,2008-01-06T17:30:00Z,30.2513,-88.0778,5.355,25.28,1111122 
DISL,ioos:station:DISL:DISL:1,2008-01-06T18:00:00Z,30.2513,-88.0778,5.396,25.46,1111122 
DISL,ioos:station:DISL:DISL:1,2008-01-06T18:30:00Z,30.2513,-88.0778,5.489,25.64,1111122 
DISL,ioos:station:DISL:DISL:1,2008-01-06T19:00:00Z,30.2513,-88.0778,5.522,25.26,1111122 
DISL,ioos:station:DISL:DISL:1,2008-01-06T19:30:00Z,30.2513,-88.0778,5.62,25.17,1111122 
DISL,ioos:station:DISL:DISL:1,2008-01-06T20:00:00Z,30.2513,-88.0778,5.7,24.85,1111122 
DISL,ioos:station:DISL:DISL:1,2008-01-06T20:30:00Z,30.2513,-88.0778,5.759,24.74,1111122 